Weather History for Cincinnati, OH

Change the Weather History Date:

Monday, August 5, 2013

  Actual Average Record
Temperature  
Mean Temperature 66 °F -  
Max Temperature 80 °F 83 °F 98 °F (2002)
Min Temperature 53 °F 64 °F 50 °F (1951)
Cooling Degree Days 1    
Growing Degree Days 16 (Base 50)    
Moisture  
Dew Point 57 °F    
Average Humidity 74    
Maximum Humidity 100    
Minimum Humidity 43    
Precipitation  
Precipitation 0.00 in - - ()
Sea Level Pressure  
Sea Level Pressure 30.07 in    
Wind  
Wind Speed 1 mph (ESE)    
Max Wind Speed 8 mph    
Max Gust Speed -    
Visibility 10 miles    
Events Fog    
Averages and records for this station are not official NWS values.
T = Trace of Precipitation, MM = Missing Value Source: NWS Daily Summary

Daily Weather History Graph

Daily Weather History Graph

Search for Another Location

Airport:

Trip Planner

Search our weather history database for the weather conditions in past years. The results will help you decide how hot, cold, wet, or windy it might be!

Date:

Astronomy

Aug. 05, 2013 Rise Set
Actual Time 6:41 AM EDT 8:44 PM EDT
Civil Twilight 6:12 AM EDT 9:14 PM EDT
Nautical Twilight 5:36 AM EDT 9:49 PM EDT
Astronomical Twilight 4:57 AM EDT 10:28 PM EDT
Moon 5:36 AM EDT (8/5) 7:44 PM EDT (8/5)
Length of Visible Light 15h 01m
Length of Day
14h 02m
Waning Crescent, 1% of the Moon is Illuminated
Aug 5
Waning Crescent
Aug 6
New
Aug 14
First Quarter
Aug 20
Full
Aug 28
Last Quarter

Hourly Weather History & Observations

Time (EDT) Temp. Dew Point Humidity Pressure Visibility Wind Dir Wind Speed Gust Speed Precip Events Conditions
12:53 AM 59.0 °F 57.9 °F 96% 30.13 in 10.0 mi Calm Calm - N/A   Clear
1:53 AM 57.9 °F 57.9 °F 100% 30.13 in 10.0 mi Calm Calm - N/A   Clear
2:53 AM 57.9 °F 57.0 °F 97% 30.12 in 10.0 mi Calm Calm - N/A   Clear
3:53 AM 57.9 °F 57.0 °F 97% 30.12 in 10.0 mi Calm Calm - N/A   Clear
4:53 AM 57.0 °F 55.9 °F 96% 30.12 in 10.0 mi Calm Calm - N/A   Clear
5:53 AM 55.9 °F 55.9 °F 100% 30.12 in 10.0 mi Calm Calm - N/A   Clear
6:53 AM 54.0 °F 54.0 °F 100% 30.13 in 10.0 mi Calm Calm - N/A Fog Patches of Fog
7:03 AM 53.6 °F 53.6 °F 100% 30.13 in 8.0 mi Calm Calm - N/A Fog Patches of Fog
7:53 AM 59.0 °F 57.9 °F 96% 30.13 in 10.0 mi Calm Calm - N/A   Partly Cloudy
8:53 AM 63.0 °F 59.0 °F 87% 30.14 in 10.0 mi Calm Calm - N/A   Clear
9:53 AM 66.9 °F 61.0 °F 81% 30.12 in 10.0 mi Calm Calm - N/A   Clear
10:53 AM 73.0 °F 60.1 °F 64% 30.12 in 10.0 mi Variable 4.6 mph - N/A   Clear
11:53 AM 73.9 °F 55.0 °F 52% 30.10 in 10.0 mi Calm Calm - N/A   Clear
12:53 PM 75.9 °F 55.9 °F 50% 30.09 in 10.0 mi WSW 3.5 mph - N/A   Scattered Clouds
1:53 PM 78.1 °F 55.9 °F 46% 30.07 in 10.0 mi Variable 4.6 mph - N/A   Partly Cloudy
2:53 PM 78.1 °F 54.0 °F 43% 30.05 in 10.0 mi Calm Calm - N/A   Mostly Cloudy
3:53 PM 79.0 °F 57.0 °F 47% 30.04 in 10.0 mi ENE 8.1 mph - N/A   Mostly Cloudy
4:53 PM 78.1 °F 55.9 °F 46% 30.03 in 10.0 mi East 6.9 mph - N/A   Partly Cloudy
5:53 PM 77.0 °F 55.9 °F 48% 30.03 in 10.0 mi ESE 3.5 mph - N/A   Mostly Cloudy
6:53 PM 75.9 °F 55.9 °F 50% 29.99 in 10.0 mi SE 8.1 mph - N/A   Clear
7:53 PM 73.9 °F 57.0 °F 55% 29.98 in 10.0 mi SSE 5.8 mph - N/A   Scattered Clouds
8:53 PM 73.0 °F 59.0 °F 61% 29.99 in 10.0 mi East 3.5 mph - N/A   Overcast
9:53 PM 70.0 °F 60.1 °F 71% 29.99 in 10.0 mi Calm Calm - N/A   Mostly Cloudy
10:53 PM 69.1 °F 62.1 °F 78% 30.00 in 10.0 mi Calm Calm - N/A   Partly Cloudy
11:53 PM 66.9 °F 61.0 °F 81% 29.99 in 10.0 mi Calm Calm - N/A   Partly Cloudy